Location: La Rigalderie
(43.9317°N, 3.4797°E)
Time: 07:22:23
(UTC+00:00)

Daily predictions for brighter satellites

Satellite Brightness Start Highest point End
(mag) Time Altitude Azimuth Time Altitude Azimuth Time Altitude Azimuth
Cosmos 1980 4.4 16:34:32 10° S 16:39:35 35° ESE 16:44:40 10° NE
Envisat 4.0 16:36:30 10° ESE 16:40:35 25° ENE 16:44:40 10° N
ISS -3.4 16:37:22 10° NW 16:40:37 46° NNE 16:43:53 10° E
SMAP 3.4 16:37:09 10° SE 16:41:32 43° ENE 16:45:57 10° N
SJ-7 4.4 16:38:02 10° SSE 16:42:13 77° ENE 16:46:23 10° N
Cosmos 1602 4.3 16:38:38 10° NNW 16:42:29 62° W 16:46:19 10° S
Feng Yun 1-1 Rocket 4.3 16:42:09 10° SE 16:47:22 54° ENE 16:52:37 10° N
H-2A R/B 3.1 16:44:45 10° SE 16:48:12 39° ENE 16:51:39 10° N
ALOS 3.7 16:45:57 10° S 16:50:23 44° W 16:54:52 10° NNW
Cosmos 1707 Rocket 3.8 16:46:25 10° S 16:50:53 80° W 16:55:23 10° N
Okean-O 3.4 16:48:45 10° SE 16:52:36 31° ENE 16:56:30 10° N
Cosmos 1992 Rocket 4.3 16:49:06 10° N 16:54:07 44° ENE 16:59:05 10° SE
Cosmos 2279 Rocket 4.2 16:49:28 10° N 16:55:45 82° W 17:02:01 10° S
COBE Rocket 4.0 16:51:34 10° NNE 16:56:05 49° E 17:00:38 10° S
Cosmos 304 Rocket 4.2 16:51:47 10° NNW 16:56:35 69° WSW 17:01:21 10° S
Cosmos 1536 3.5 16:52:57 10° N 16:56:36 32° ENE 17:00:13 10° SE
COSMOS 2428 3.0 16:51:04 10° SSW 16:56:44 74° WNW 17:02:27 10° NNE
USA 267 3.3 16:50:53 10° SE 16:57:26 87° NE 17:04:01 10° NW
BREEZE-M R/B 3.9 16:51:24 10° W 16:57:43 43° NNW 17:00:45 12° ENE
ATLAS 3B R/B 3.6 16:51:14 10° NW 16:57:44 53° WSW 17:04:24 10° SSE
CZ-4B R/B 4.0 16:55:16 10° NNW 16:57:56 20° WNW 17:00:33 10° WSW
NOSS 3-4 (A) 4.4 16:56:14 10° WSW 17:01:57 43° NW 17:08:03 10° NNE
NOSS 3-4 (C) 4.4 16:56:19 10° WSW 17:02:03 43° NW 17:08:10 10° NNE
Shenzhou-11 Module 1.8 16:59:44 10° W 17:02:28 70° S 17:04:47 13° E
Meteor 1-5 Rocket 4.1 16:57:15 10° N 17:02:49 80° E 17:08:11 10° SSE
STARLINK-46 3.7 17:02:11 10° W 17:04:38 32° NNW 17:06:36 14° NE
Cosmos 292 Rocket 4.5 17:02:25 10° N 17:06:47 32° ENE 17:11:07 10° SE
Lacrosse 5 rocket 1.6 17:03:30 10° SW 17:07:49 68° NW 17:11:25 13° NE
AQUARIUS 4.1 17:04:09 10° SSE 17:08:37 72° ENE 17:13:07 10° N
CZ-4 R/B 2.5 17:07:50 10° ESE 17:10:43 20° ENE 17:13:36 10° NNE
Cosmos 1908 Rocket 4.1 17:07:06 10° N 17:11:09 35° ENE 17:15:08 10° SE
Aureole 1 Rocket 3.5 17:10:41 10° SSE 17:13:02 21° ESE 17:13:52 19° ENE
Nadezhda 4 Rocket 4.0 17:08:38 10° S 17:14:55 71° E 17:21:13 10° NNE
COSMO-SKYMED 1 3.5 17:11:25 11° NE 17:15:01 28° E 17:18:46 10° SSE
SL-4 R/B 2.8 17:12:59 10° W 17:16:28 36° NNW 17:19:09 16° NE
Cosmos 1666 3.1 17:16:08 10° N 17:19:38 36° ENE 17:23:05 10° SE
NOSS 7 (D) 4.4 17:16:53 10° NNW 17:19:47 44° NE 17:23:03 10° SE
FengYun 1-2 T 4.5 17:16:46 10° SE 17:21:54 43° ENE 17:27:05 10° N
YAOGAN 1 3.6 17:18:31 10° ESE 17:21:58 24° ENE 17:25:24 10° NNE
Cosmos 2278 Rocket 2.3 17:21:52 10° NNW 17:27:34 82° WSW 17:33:12 10° SSE
Okean 1-7 3.6 17:26:30 10° SSE 17:30:25 34° E 17:32:59 18° NE
Cosmos 2360 Rocket 4.5 17:27:46 10° W 17:31:24 17° NW 17:35:04 10° N
FALCON 9 DEB 3.7 17:28:13 10° SSW 17:31:33 44° SE 17:32:52 29° E
BREEZE-M DEB (TANK) 3.2 17:30:14 10° WNW 17:32:33 35° SW 17:34:43 10° SE
Cosmos 1733 Rocket 4.1 17:31:37 10° NNW 17:35:51 49° W 17:40:06 10° SSW
Cosmos 2026 Rocket 4.1 17:31:31 10° SSE 17:37:16 47° E 17:43:02 10° NNE
Centaur D-1A AC-31 3.9 17:37:57 10° S 17:40:07 13° SSE 17:43:26 10° SE
ATLAS 2AS CENTAUR R/B 4.4 17:33:32 10° W 17:40:26 30° NNW 17:47:15 10° NNE
Cosmos 2369 Rocket 3.8 17:37:26 10° N 17:39:54 15° NNE 17:39:54 15° NNE
SL-16 R/B 2.7 17:36:08 10° S 17:41:20 39° ESE 17:44:01 25° NE
SeaSat 1 4.4 17:45:12 12° NNE 17:45:12 12° NNE 17:46:11 10° N
NOAA 12 4.3 17:40:01 10° S 17:45:20 77° WSW 17:50:39 10° NNW
Cosmos 2333 Rocket 3.8 17:43:36 10° WSW 17:48:38 31° NW 17:53:43 10° N
CZ-4 R/B 4.4 17:45:02 10° SSE 17:49:08 60° ENE 17:53:15 10° N
BREEZE-M DEB (TANK) 2.0 17:47:52 10° W 17:52:15 65° N 17:52:49 51° ENE
Cosmos 546 4.5 17:48:35 10° WNW 17:52:26 82° NNE 17:53:38 42° ESE
Cosmos 2237 Rocket 2.5 17:46:53 10° SW 17:52:33 67° WNW 17:57:42 13° NNE
Cosmos 1812 4.5 17:49:11 10° SW 17:52:40 32° WNW 17:56:12 10° N
STARLINK-52 3.3 17:50:08 10° SW 17:53:34 55° SE 17:53:56 51° ESE
STARLINK-29 3.0 17:58:12 10° SW 18:01:43 74° SE 18:01:54 71° ESE
Sich 1 Rocket 3.6 17:58:23 10° N 18:02:42 52° ENE 18:06:58 10° SSE
Cosmos 921 Rocket 2.9 17:58:31 10° N 18:02:44 57° ENE 18:04:17 35° SE
SKYMED 2 3.5 18:00:06 18° NNE 18:03:19 88° WNW 18:07:39 10° SSW
Cosmos 1627 Rocket 4.3 17:58:14 10° S 18:04:20 82° E 18:10:29 10° N
Cosmos 1655 Rocket 4.4 17:59:32 10° SSE 18:05:17 38° E 18:06:27 35° ENE
Cosmos 1782 Rocket 3.3 18:01:22 10° N 18:05:45 75° E 18:10:03 10° SSE
USA 215 4.2 18:02:28 20° NNE 18:06:12 36° NNW 18:12:01 10° W
Cosmos 2219 Rocket 4.2 18:02:52 10° WSW 18:07:17 23° NW 18:11:44 10° N
YAOGAN 6 2.8 18:03:55 10° S 18:07:25 67° W 18:10:59 10° NNW
Cosmos 1174 4.0 18:07:18 10° SSW 18:12:30 70° ESE 18:13:07 61° ENE
Cosmos 614 Rocket 3.8 18:09:52 10° SSW 18:14:56 73° ESE 18:16:22 47° NE
Cosmos 1703 Rocket 4.0 18:11:23 10° SSW 18:15:48 63° W 18:19:20 16° N
ISS -1.8 18:14:19 10° WNW 18:17:15 28° SW 18:18:22 23° S
Envisat 4.1 18:14:31 10° S 18:19:21 44° W 18:24:13 10° NNW
ATLAS 5 CENTAUR R/B 3.6 18:19:29 10° W 18:20:18 15° WNW 18:20:18 15° WNW
Cosmos 1943 Rocket 3.4 18:18:04 10° N 18:21:11 26° NNE 18:21:11 26° NNE
STARLINK-60 4.3 18:21:27 10° WSW 18:24:03 40° WNW 18:24:03 40° WNW
Cosmos 1441 Rocket 4.1 18:23:35 10° NNW 18:27:17 49° W 18:30:55 10° S
CSL-04 Rocket 3.6 18:22:21 10° SSE 18:27:37 82° WSW 18:32:57 10° NNW
Cosmos 1140 Rocket 3.4 18:24:50 10° S 18:29:29 63° SE 18:29:29 63° SE
Cosmos 407 Rocket 3.4 18:25:05 10° SSW 18:30:16 86° WNW 18:31:31 53° NNE
Cosmos 2297 3.7 18:24:37 10° NNW 18:30:22 83° WSW 18:35:26 13° SSE
Meteor 1-18 Rocket 4.2 18:27:40 10° S 18:33:25 87° W 18:36:16 31° N
Cosmos 1023 Rocket 4.4 18:35:55 10° SSW 18:40:30 72° S 18:40:30 72° S
Cosmos 1867 4.0 18:36:19 10° NNW 18:40:36 50° N 18:40:36 50° N
CZ-4 R/B 3.0 18:42:02 10° SSW 18:45:34 32° W 18:49:04 10° NNW
Lacrosse 5 rocket 3.5 18:44:37 10° WNW 18:47:04 18° NNW 18:47:04 18° NNW
COSMO-SKYMED 1 4.4 18:48:38 17° NNW 18:51:08 28° WNW 18:54:50 10° SW
USA 229 DEB 4.5 18:45:09 10° NNW 18:50:46 39° NNE 18:50:46 39° NNE
USA 229 4.5 18:45:16 10° NNW 18:50:51 39° NNE 18:50:51 39° NNE
S3M 3.8 18:48:11 10° N 18:54:27 89° E 19:00:35 10° S
SL-4 R/B 4.3 18:53:26 10° NW 18:54:45 18° NW 18:54:45 18° NW
YAOGAN 1 4.1 18:53:57 10° SSW 18:57:53 34° W 19:01:51 10° NNW
Meteor 2-9 Rocket 4.3 18:54:42 10° NNW 19:08:03 - S 19:00:31 78° W
Meteor 2-13 Rocket 4.4 18:58:12 10° SSW 19:04:06 79° W 19:04:06 79° W
SL-16 R/B 3.5 19:20:21 10° WSW 19:25:30 34° NW 19:25:57 34° NW
Cosmos 2369 Rocket 4.1 19:20:06 10° NNW 19:21:43 20° NNW 19:21:43 20° NNW
Cosmos 2344 4.3 19:41:07 10° NW 19:50:07 73° NNE 19:50:07 73° NNE
